sat.trackr.live / text

‹ back to catalog

STARLINK-34803

NORAD 65059 · 2025-165D

PAYLOAD ACTIVE UNKNOWN

§ Identity

Operator
Country
US
Launch date
2025-07-31
Launch site
AFWTR
Launch vehicle
Mass (kg)
RCS (m²)

Purposes: comms

External: N2YO · Heavens-Above · Gunter

§ Orbital elements

Epoch: 2026-09-20T22:00:03.000096Z

Period
93.91 min
Inclination
97.2853°
Eccentricity
0.0001402
Mean motion
15.33454910 rev/d
Perigee alt
464.6 km
Apogee alt
466.5 km
Semi-major
6,843.7 km
B*
-1.0040e-3
RAAN
335.0826°
Arg perigee
87.2206°
Mean anomaly
353.5384°
Rev number
579

§ Raw data

STARLINK-348031 65059U 25165D   26263.91670139 -.00032359  00000+0 -10040-2 0  99992 65059  97.2853 335.0826 0001402  87.2206 353.5384 15.33454910  5797

JSON: /api/v1/satellites/65059 · /tle

For live sub-satellite position, see the globe view (requires WebGL).

§ Visibility from observer

Set your observer location to see the next 7 days of passes ≥ 10°. The values pass through the URL so the page stays shareable.

No JS? Fill the form by hand. The geolocation button needs JavaScript.